Location: Esp�n
(42.4593°N, 0.2047°W)
Time: 21:31:55
(UTC+00:00)

STARLINK-70 - Pass Details

Date: 07 October 2020
Orbit: 441 x 442 km, 53.0° (Epoch: 26 October)

Event Time Altitude Azimuth Distance (km) Brightness Sun altitude
Exits shadow 05:20:00 13° 263° (W) 1,403 5.0 -9.1°
Maximum altitude 05:22:53 39° 331° (NNW) 678 3.9 -8.6°
Drops below altitude 10° 05:26:13 10° 42° (NE) 1,561 6.6 -8.0°
Sets 05:28:26 0° 50° (NE) 2,434 7.8 -7.5°
